Regional Weather Roundup
Issued by NWS

Home | Current Version | Previous Version | Text Only | Print | Product List | Glossary Off
Versions: 1 2 3 4 5 6 7 8 9 10 11 12 13 14 15 16 17 18 19 20 21 22 23 24 25 26 27 28 29 30 31 32 33 34 35 36 37 38 39 40 41 42 43 44 45 46 47 48 49 50

243
ASUS43 KFSD 251402
RWRSD

WEATHER ROUNDUP FOR SOUTH DAKOTA
NATIONAL WEATHER SERVICE SIOUX FALLS SD
900 AM CDT MON SEP 25 2017

NOTE: "FAIR" INDICATES FEW OR NO CLOUDS BELOW 12,000 FEET WITH NO
SIGNIFICANT WEATHER AND/OR OBSTRUCTIONS TO VISIBILITY.


SDZ001>005-009-010-012>017-251500-
NORTHWEST AND NORTH CENTRAL SOUTH DAKOTA

CITY           SKY/WX    TMP DP  RH WIND       PRES   REMARKS
FAITH            N/A     45  42  89 NE10      30.13F
MOBRIDGE       CLOUDY    50  47  89 N6        30.11F
$$

SDZ012>016-024>037-041>051-057-063-072>074-251500-
SOUTHWEST AND SOUTH CENTRAL SOUTH DAKOTA

CITY           SKY/WX    TMP DP  RH WIND       PRES   REMARKS
RAPID CTY ARPT CLOUDY    45  43  93 CALM      30.14R
PIERRE         MOSUNNY   48  44  86 N8        30.11S
CUSTER         FOG       37  35  92 CALM      30.11S VSB 1
ELLSWORTH AFB  CLOUDY    44  44 100 CALM      30.13
PHILIP         CLOUDY    48  44  86 NE12      30.13S
PINE RIDGE     CLOUDY    44  42  93 NE6       30.15R
SPEARFISH      FAIR      41  41 100 E6        30.12F
WINNER         LGT RAIN  49  46  90 NW10      30.12R
$$

SDZ004>011-016>023-039-040-251500-
NORTHEAST SOUTH DAKOTA

CITY           SKY/WX    TMP DP  RH WIND       PRES   REMARKS
ABERDEEN       CLOUDY    50  47  89 N9        30.12S
WATERTOWN      CLOUDY    49  47  93 N16G23    30.04F
BROOKINGS      CLOUDY    50  48  93 N13       30.05S
SISSETON         N/A     51  49  92 N12       30.08S
$$

SDZ017-020-022-023-036>040-048>070-251500-
SOUTHEAST SOUTH DAKOTA

CITY           SKY/WX    TMP DP  RH WIND       PRES   REMARKS
SIOUX FALLS    CLOUDY    53  52  96 N9        30.02S
HURON          CLOUDY    50  47  89 N13       30.08S
CHAMBERLAIN    CLOUDY    50  47  91 NE15G22   30.07F
MITCHELL       CLOUDY    50  49  96 N14       30.08R
YANKTON        CLOUDY    53  51  93 N8        30.03R
$$

ABBREVIATIONS USED IN REMARKS
   TC - TEMPERATURE IN CELSIUS
  WCI - WIND CHILL INDEX
   HX - HEAT INDEX
  VSB - VISIBILITY





USA.gov is the U.S. government's official web portal to all federal, state and local government web resources and services.